Temperature
16 16 16 16 16 16 17 17 17 17 17 17 17 17 17 17 17 16 16 16 16 16 15 15 15 15 15 15 15 14 14 14 14 14 14 14 14 14
16 16 16 16 16 16 16 16 16 16 16 17 17 17 17 17 17 17 16 16 16 16 16 15 15 15 15 15 14 14 14 14 14 14 14 14 14 14
16 16 16 16 16 16 16 16 16 16 16 16 16 16 16 16 16 16 16 16 16 16 16 15 15 15 15 15 14 14 14 14 14 14 14 14 14 14
16 16 16 16 16 16 16 16 16 16 16 16 16 16 16 16 16 16 16 16 16 16 15 15 15 15 15 15 14 14 14 14 14 14 14 14 13 13
16 16 16 16 16 16 16 16 16 15 15 15 15 16 16 16 16 16 16 16 15 15 15 15 15 15 15 14 14 14 14 14 14 14 14 14 14 13
16 16 16 15 15 15 15 15 15 15 15 15 15 15 15 15 15 15 15 15 15 15 15 15 15 14 14 14 14 14 14 14 14 14 14 14 13 13
15 15 15 15 15 15 15 15 15 15 15 15 15 15 15 15 14 14 14 14 14 14 14 14 14 14 14 14 14 14 14 14 13 13 13 13 13 13
15 15 15 15 15 15 15 15 14 14 14 14 14 14 14 14 14 14 13 13 14 14 14 14 14 13 14 13 13 13 13 13 13 13 13 13 13 13
15 15 15 14 14 14 14 14 14 14 14 14 13 13 13 13 13 13 13 13 13 13 13 13 13 13 13 13 13 13 13 12 12 12 12 12 12 12
15 15 14 14 14 14 14 14 13 13 13 13 13 13 13 12 12 12 12 12 12 12 12 12 12 12 12 12 12 12 12 12 12 12 12 11 11 11
14 14 14 14 14 13 13 13 13 13 13 12 12 12 12 12 12 12 12 11 11 12 11 11 11 11 11 12 12 11 11 11 11 11 11 11 11 11
14 13 13 13 13 13 13 13 12 12 12 12 12 12 12 11 11 11 11 11 10 10 11 10 10 10 10 10 11 10 10 10 10 10 10 10 10 10
13 13 12 12 12 12 12 12 12 12 11 11 11 11 11 11 11 10 10 10 10 10 10 9 9 9 9 9 9 10 9 9 9 9 9 9 9 9
12 12 12 12 11 11 11 11 11 11 11 11 10 10 10 10 10 10 9 9 9 9 9 8 8 8 8 8 8 8 9 9 9 9 9 9 9 9
11 11 11 11 11 11 11 10 10 10 10 10 10 9 9 9 9 9 9 9 9 8 8 8 8 8 7 7 7 7 8 8 8 8 8 8 8 8
11 10 10 10 10 10 10 10 9 9 9 9 9 8 8 8 8 8 8 8 8 8 8 8 7 7 7 7 7 7 7 7 7 7 7 7 8 8
10 10 10 9 9 9 9 9 8 8 8 8 8 8 8 7 7 7 7 7 7 7 7 7 7 7 7 7 7 7 7 7 7 7 7 7 7 7
9 9 9 9 8 8 8 8 8 8 7 7 7 7 7 7 7 7 6 6 6 6 6 6 6 6 6 6 6 6 6 6 6 6 6 6 6 7
9 8 8 8 7 7 7 7 7 7 7 6 6 6 6 6 6 6 6 6 6 5 5 5 5 5 4 4 5 5 5 5 5 5 5 5 6 6
8 7 7 7 7 7 6 6 6 6 6 6 6 5 5 5 5 5 5 5 5 5 5 5 4 4 4 4 4 5 5 5 4 4 5 5 5 6
7 7 6 6 6 6 5 5 5 5 5 5 5 5 4 4 4 4 4 4 4 4 4 4 4 4 4 4 4 4 5 5 4 4 4 4 4 5
6 6 5 5 5 5 5 4 4 4 4 4 4 4 4 4 4 4 3 3 3 3 3 4 4 4 4 3 3 4 4 4 5 5 5 4 4 4
5 5 5 4 4 4 4 4 4 4 4 4 4 3 3 3 3 3 3 3 3 3 3 3 4 4 3 3 3 3 4 4 4 5 5 5 5 4
Wind_Speed
6 6 4 4 4 4 3 4 4 3 3 3 3 3 5 7 10 9 10 12 13 14 14 15 15 15 15 15 15 15 15 15 14 14 15 14 14 14
5 6 5 4 4 4 4 4 4 4 4 3 3 2 3 5 7 9 11 12 13 14 14 15 15 15 16 16 16 16 16 16 16 16 16 16 17 17
6 6 6 5 4 4 4 4 4 4 5 3 2 2 2 3 3 5 7 8 9 13 14 15 15 16 16 16 17 18 18 18 18 18 18 18 18 18
7 6 6 5 5 4 4 4 4 5 4 4 2 2 3 3 3 3 4 6 7 10 13 14 14 15 16 17 18 18 18 18 19 19 19 18 18 18
7 7 6 6 5 4 5 5 4 4 4 3 3 2 2 1 2 2 3 3 6 8 9 11 13 15 16 17 17 17 17 17 18 18 18 18 18 19
6 6 6 6 6 6 5 5 4 4 4 3 3 3 3 2 1 2 3 3 4 5 6 8 10 12 13 14 14 15 15 15 15 16 16 16 17 18
4 5 5 6 6 5 4 5 5 4 3 3 3 2 2 2 2 2 4 4 4 3 4 5 5 6 8 9 11 13 14 14 14 14 15 15 16 17
4 3 3 4 5 6 6 5 5 5 4 3 3 4 4 4 3 3 3 4 5 2 3 5 4 5 6 7 9 11 12 12 12 12 13 14 15 15
3 3 2 2 3 2 2 3 3 4 5 4 4 5 5 4 3 4 4 5 6 4 3 6 4 6 7 9 11 12 12 12 12 13 13 14 15 16
3 3 3 1 1 2 2 1 1 1 2 3 4 4 4 3 3 4 4 5 5 4 3 5 5 6 6 8 11 12 12 12 13 14 14 15 15 16
2 2 2 2 2 2 2 1 0 1 1 1 0 1 2 3 1 1 2 3 4 4 2 3 4 5 6 6 8 10 11 12 12 13 14 14 15 14
3 3 4 3 3 3 2 1 0 1 2 2 3 3 3 4 3 1 2 3 3 3 1 2 3 3 4 3 4 6 8 9 11 13 14 14 14 10
3 3 3 5 5 5 4 2 1 1 1 2 2 3 3 3 3 3 2 2 3 4 3 2 3 3 4 4 5 6 6 7 8 9 11 12 13 10
4 3 3 6 7 7 5 5 4 3 2 3 3 3 4 4 4 4 4 4 5 6 6 4 3 4 5 7 7 6 7 8 8 8 9 10 11 13
5 7 8 9 8 7 8 7 5 4 3 3 3 3 3 4 4 4 5 5 6 6 6 5 5 5 6 7 8 8 9 8 7 7 8 8 8 8
6 8 10 11 8 7 6 6 5 4 3 2 3 3 4 4 4 4 4 5 5 6 6 7 6 6 7 9 9 10 9 7 7 8 9 9 9 9
5 5 6 6 6 6 5 5 5 4 4 3 3 4 4 5 5 4 4 4 4 6 7 6 7 7 8 8 9 10 9 9 9 9 8 10 10 10
7 6 6 5 5 5 5 5 5 5 4 4 4 4 4 5 5 5 4 5 6 7 8 8 8 7 6 6 8 9 9 9 10 9 9 10 12 11
8 6 5 5 4 4 4 4 4 5 4 4 5 5 5 5 5 6 6 6 7 8 8 7 7 7 9 11 7 6 9 10 10 10 9 10 12 11
6 5 5 5 4 4 5 5 5 5 5 5 5 5 5 6 6 7 7 7 8 8 8 8 7 7 8 10 10 10 10 10 10 11 11 11 11 12
5 5 5 5 5 5 4 4 5 5 5 5 5 6 6 6 6 7 7 9 8 8 9 9 9 10 9 7 9 10 10 10 11 10 11 10 11 10
5 5 5 5 5 5 5 5 5 6 6 6 6 6 6 6 7 8 8 8 8 9 10 10 10 8 7 8 11 12 12 11 11 13 14 12 8 7
5 5 5 5 5 5 5 6 7 6 6 6 7 7 7 7 7 7 8 8 9 10 10 10 9 8 8 9 10 10 13 12 10 10 9 9 13 17
Wind_Direction
193 193 196 199 194 197 186 179 175 212 250 255 254 251 238 233 237 232 235 240 240 242 245 247 248 249 250 251 252 254 256 257 258 257 257 258 258 259
193 194 202 203 196 196 197 196 193 197 232 246 245 265 257 246 240 233 238 244 245 246 247 249 250 250 252 253 254 256 257 257 257 257 257 258 258 258
202 199 208 201 197 198 194 191 194 189 219 254 249 266 261 256 258 243 244 244 250 250 251 252 252 253 254 257 258 258 258 258 258 258 258 257 257 256
208 202 211 203 202 199 193 199 202 200 205 234 248 255 252 258 260 262 261 256 255 258 256 254 254 256 259 261 261 260 260 260 260 259 258 257 256 256
205 204 209 198 208 207 200 205 208 203 203 216 241 245 263 280 274 273 274 270 270 266 261 257 258 261 262 261 261 260 260 260 259 258 257 257 257 257
201 204 209 204 209 208 207 209 204 201 201 214 235 246 254 265 256 267 279 268 273 275 268 266 264 264 263 261 260 260 259 259 259 259 259 258 258 259
197 204 211 207 207 205 205 203 196 203 207 218 234 245 252 251 253 252 266 281 275 263 272 273 271 271 270 265 262 261 261 262 260 261 262 261 261 261
192 201 206 210 218 216 211 197 187 197 213 218 231 241 255 255 259 258 263 278 282 260 257 277 270 272 273 269 267 263 263 263 262 263 265 264 264 264
183 188 198 206 204 201 205 208 214 215 207 212 234 247 257 256 255 261 256 258 265 276 266 278 273 273 275 269 263 260 262 264 265 267 270 270 270 268
173 177 182 191 169 169 166 169 226 247 235 222 236 255 266 270 256 263 270 273 272 266 239 269 280 278 281 274 263 259 263 266 269 270 272 273 273 272
104 96 110 116 72 112 138 155 55 354 24 35 356 335 338 331 291 278 293 287 289 284 234 254 282 290 287 278 273 270 270 274 276 276 275 276 276 276
92 80 71 78 74 85 114 129 145 324 348 359 7 9 6 8 11 298 269 279 289 289 291 271 289 306 295 284 293 297 290 283 281 279 276 276 279 279
98 75 57 61 67 68 78 84 77 4 12 11 9 8 6 5 2 352 304 259 267 268 285 277 278 282 273 290 295 292 288 289 292 287 280 278 278 271
94 78 67 64 69 66 68 64 58 55 51 36 23 9 358 349 340 333 321 297 269 267 279 277 272 279 284 288 290 290 289 288 286 283 285 287 281 271
82 76 73 72 71 65 58 58 60 58 53 39 11 350 338 332 334 334 333 329 312 294 292 283 279 284 279 280 285 288 294 291 281 281 287 288 285 283
74 68 67 65 63 56 50 46 45 44 40 20 348 335 338 341 344 343 335 336 325 313 310 301 289 283 281 280 281 284 285 283 286 289 291 289 283 277
77 63 53 47 44 39 36 34 32 29 22 2 350 341 338 338 334 336 330 327 317 314 317 319 314 295 275 275 281 282 287 289 289 292 293 291 287 281
76 64 54 47 41 32 24 16 14 10 1 351 345 338 332 329 326 326 323 318 314 312 312 314 318 316 308 285 249 276 290 293 296 295 290 289 290 289
69 62 53 42 33 26 19 10 1 354 351 351 347 341 333 326 322 322 324 322 317 313 311 312 312 311 308 307 294 258 286 296 298 296 292 287 287 290
57 54 43 32 24 17 12 6 358 355 355 350 343 337 332 326 323 321 320 318 315 313 312 313 309 303 297 297 296 294 277 279 289 292 294 292 287 284
46 40 31 22 16 11 7 2 355 349 346 341 338 334 331 327 322 319 317 316 313 311 310 307 302 294 290 287 287 290 293 277 269 278 289 292 295 293
37 31 24 19 14 9 2 356 350 345 343 341 336 332 328 323 317 316 315 314 311 307 305 304 306 304 294 289 293 298 302 304 293 275 262 256 272 284
30 27 22 15 10 5 359 353 347 341 339 335 332 328 324 319 315 312 311 309 308 309 310 309 311 307 301 296 297 298 302 307 309 309 301 279 258 257
Height
1553 1555 1556 1558 1559 1560 1561 1562 1563 1563 1563 1563 1564 1565 1565 1566 1566 1566 1567 1567 1567 1567 1567 1567 1566 1566 1566 1565 1565 1564 1564 1564 1563 1563 1563 1562 1562 1561
1550 1551 1553 1554 1556 1557 1558 1559 1559 1560 1560 1560 1561 1561 1562 1562 1562 1563 1563 1563 1563 1563 1563 1563 1562 1562 1561 1561 1561 1560 1560 1559 1559 1558 1558 1557 1557 1556
1546 1547 1549 1551 1552 1553 1554 1555 1555 1556 1556 1556 1557 1557 1558 1558 1558 1558 1558 1558 1558 1558 1558 1558 1557 1557 1556 1556 1556 1555 1555 1554 1554 1553 1552 1552 1551 1551
1542 1543 1545 1547 1548 1549 1549 1550 1551 1552 1552 1552 1552 1553 1553 1554 1554 1554 1554 1553 1553 1553 1553 1553 1552 1551 1551 1550 1550 1549 1549 1548 1548 1547 1547 1546 1546 1545
1538 1539 1541 1542 1543 1544 1545 1546 1547 1547 1547 1548 1548 1548 1549 1549 1549 1548 1548 1548 1548 1548 1547 1547 1546 1546 1545 1544 1544 1543 1543 1542 1542 1541 1540 1540 1539 1539
1534 1535 1536 1538 1539 1540 1541 1542 1542 1543 1543 1543 1543 1543 1544 1543 1543 1543 1543 1542 1542 1542 1541 1541 1540 1539 1538 1538 1537 1537 1536 1535 1535 1534 1533 1533 1532 1531
1529 1531 1532 1533 1535 1536 1537 1537 1538 1538 1538 1538 1538 1538 1538 1538 1538 1537 1537 1536 1535 1535 1535 1534 1533 1532 1531 1531 1530 1529 1528 1528 1527 1526 1526 1525 1524 1524
1526 1527 1528 1529 1531 1532 1533 1533 1534 1534 1534 1534 1533 1533 1533 1533 1533 1532 1531 1530 1529 1529 1528 1527 1527 1525 1524 1523 1522 1522 1521 1520 1519 1518 1518 1517 1516 1516
1522 1523 1524 1525 1527 1528 1528 1529 1529 1529 1529 1529 1529 1528 1528 1528 1527 1526 1525 1524 1523 1522 1521 1519 1519 1518 1517 1516 1515 1514 1513 1512 1511 1510 1509 1509 1508 1507
1519 1520 1521 1522 1523 1523 1524 1525 1525 1525 1525 1524 1524 1524 1523 1523 1522 1521 1520 1519 1517 1517 1515 1513 1512 1511 1510 1508 1507 1506 1505 1504 1503 1502 1501 1500 1499 1498
1516 1517 1518 1519 1519 1520 1521 1521 1521 1521 1521 1521 1520 1520 1519 1518 1517 1516 1515 1513 1511 1511 1509 1507 1505 1503 1502 1501 1500 1499 1498 1496 1495 1494 1492 1491 1490 1489
1514 1514 1515 1516 1516 1517 1517 1518 1518 1518 1518 1517 1517 1516 1515 1513 1512 1511 1510 1509 1507 1505 1504 1503 1500 1498 1495 1494 1493 1492 1490 1488 1487 1486 1484 1483 1482 1480
1511 1512 1513 1513 1514 1514 1515 1515 1515 1515 1515 1514 1513 1512 1511 1509 1508 1507 1506 1505 1503 1501 1500 1498 1495 1493 1491 1488 1486 1485 1484 1481 1479 1478 1477 1475 1474 1472
1510 1511 1511 1512 1512 1512 1512 1512 1512 1512 1511 1511 1510 1508 1507 1506 1504 1503 1502 1501 1499 1497 1495 1493 1491 1489 1486 1482 1480 1478 1477 1475 1473 1470 1469 1467 1465 1464
1509 1509 1510 1510 1510 1511 1511 1511 1510 1510 1509 1508 1507 1505 1504 1502 1501 1499 1498 1496 1495 1493 1491 1489 1486 1483 1481 1478 1474 1472 1470 1468 1466 1463 1461 1458 1457 1455
1508 1509 1509 1509 1509 1509 1509 1509 1508 1507 1506 1506 1504 1503 1501 1499 1497 1495 1493 1491 1489 1488 1486 1484 1481 1478 1475 1472 1469 1466 1464 1461 1459 1457 1453 1451 1449 1447
1508 1509 1508 1508 1508 1508 1508 1507 1506 1506 1504 1503 1501 1500 1498 1496 1494 1491 1489 1487 1484 1481 1479 1478 1475 1473 1469 1467 1463 1461 1458 1455 1453 1450 1446 1443 1441 1440
1509 1508 1508 1508 1508 1507 1506 1506 1505 1504 1502 1500 1499 1497 1494 1492 1490 1487 1485 1483 1480 1477 1475 1472 1469 1466 1463 1460 1459 1455 1452 1449 1446 1443 1440 1436 1433 1432
1509 1508 1508 1508 1507 1506 1505 1504 1503 1501 1500 1498 1495 1493 1491 1489 1486 1483 1481 1478 1476 1473 1470 1468 1465 1461 1458 1454 1451 1450 1446 1442 1439 1436 1434 1430 1426 1424
1509 1509 1508 1507 1507 1505 1504 1502 1501 1499 1497 1495 1492 1490 1488 1485 1482 1479 1477 1474 1471 1468 1466 1463 1461 1458 1455 1450 1445 1442 1441 1438 1434 1430 1427 1423 1420 1417
1509 1509 1508 1507 1505 1504 1502 1501 1499 1496 1494 1492 1489 1487 1484 1481 1478 1475 1473 1470 1467 1464 1461 1459 1456 1454 1449 1445 1441 1436 1434 1432 1428 1424 1420 1417 1413 1410
1509 1508 1507 1506 1504 1503 1501 1499 1497 1494 1492 1489 1486 1483 1480 1478 1474 1471 1469 1466 1463 1460 1457 1454 1451 1448 1444 1441 1436 1432 1428 1425 1422 1419 1416 1413 1409 1405
1509 1508 1507 1505 1503 1501 1499 1497 1494 1492 1489 1486 1482 1480 1477 1474 1471 1468 1465 1462 1459 1456 1452 1449 1446 1443 1439 1436 1432 1428 1423 1420 1416 1412 1410 1408 1405 1401